Time,TemperatureF,DewpointF,PressureIn,WindDirection,WindDirectionDegrees,WindSpeedMPH,WindSpeedGustMPH,Humidity,HourlyPrecipIn,Conditions,Clouds,dailyrainin,SolarRadiationWatts/m^2,SoftwareType,DateUTC
2013-05-19 00:06:00,51.6,47.0,30.21,NW,318,0.0,4.0,85,0.00,,,0.00,0,weatherlink.com 1.10,2013-05-19 07:06:00,
2013-05-19 00:21:00,50.8,47.0,30.21,NW,318,2.0,2.0,86,0.00,,,0.00,0,weatherlink.com 1.10,2013-05-19 07:21:00,
2013-05-19 00:36:00,48.9,46.0,30.21,NW,318,0.0,2.0,88,0.00,,,0.00,0,weatherlink.com 1.10,2013-05-19 07:36:00,
2013-05-19 00:51:00,49.4,47.0,30.21,NW,318,0.0,2.0,90,0.00,,,0.00,0,weatherlink.com 1.10,2013-05-19 07:51:00,
2013-05-19 01:06:00,49.3,46.0,30.21,NW,318,0.0,2.0,89,0.00,,,0.00,0,weatherlink.com 1.10,2013-05-19 08:06:00,
2013-05-19 01:21:00,50.0,47.0,30.21,NW,318,1.0,3.0,89,0.00,,,0.00,0,weatherlink.com 1.10,2013-05-19 08:21:00,
2013-05-19 01:36:00,48.8,48.0,30.21,NW,319,0.0,1.0,98,0.00,,,0.00,,weatherlink.com 1.10,2013-05-19 08:36:00,
2013-05-19 01:51:00,48.5,48.0,30.20,NW,319,0.0,1.0,99,0.00,,,0.00,,weatherlink.com 1.10,2013-05-19 08:51:00,
2013-05-19 02:06:00,48.2,48.0,30.20,NW,319,0.0,1.0,99,0.00,,,0.00,,weatherlink.com 1.10,2013-05-19 09:06:00,
2013-05-19 02:21:00,47.9,48.0,30.20,NW,319,0.0,1.0,99,0.00,,,0.00,,weatherlink.com 1.10,2013-05-19 09:21:00,
2013-05-19 02:36:00,48.3,48.0,30.21,NW,319,0.0,1.0,100,0.00,,,0.00,,weatherlink.com 1.10,2013-05-19 09:36:00,
2013-05-19 02:51:00,48.8,49.0,30.21,NW,320,0.0,1.0,99,0.00,,,0.00,,weatherlink.com 1.10,2013-05-19 09:51:00,
2013-05-19 03:06:00,49.1,49.0,30.21,NW,320,0.0,1.0,98,0.00,,,0.00,,weatherlink.com 1.10,2013-05-19 10:06:00,
2013-05-19 03:21:00,48.9,48.0,30.21,NW,320,0.0,1.0,97,0.00,,,0.00,,weatherlink.com 1.10,2013-05-19 10:21:00,
2013-05-19 03:36:00,49.2,48.0,30.21,NW,320,0.0,2.0,96,0.00,,,0.00,,weatherlink.com 1.10,2013-05-19 10:36:00,
2013-05-19 03:51:00,48.8,48.0,30.21,NW,320,0.0,1.0,97,0.00,,,0.00,,weatherlink.com 1.10,2013-05-19 10:51:00,
2013-05-19 04:06:00,48.8,48.0,30.21,NW,320,0.0,1.0,96,0.00,,,0.00,,weatherlink.com 1.10,2013-05-19 11:06:00,
2013-05-19 04:21:00,48.2,47.0,30.21,NW,320,0.0,2.0,96,0.00,,,0.00,,weatherlink.com 1.10,2013-05-19 11:21:00,
2013-05-19 04:36:00,47.9,47.0,30.21,NW,320,0.0,2.0,97,0.00,,,0.00,,weatherlink.com 1.10,2013-05-19 11:36:00,
2013-05-19 04:51:00,47.6,47.0,30.21,NW,320,3.0,4.0,97,0.00,,,0.00,,weatherlink.com 1.10,2013-05-19 11:51:00,
2013-05-19 05:06:00,47.6,47.0,30.21,NNW,339,3.0,5.0,98,0.00,,,0.00,,weatherlink.com 1.10,2013-05-19 12:06:00,
2013-05-19 05:21:00,47.7,47.0,30.21,NNW,339,3.0,5.0,98,0.00,,,0.00,,weatherlink.com 1.10,2013-05-19 12:21:00,
2013-05-19 05:36:00,47.9,47.0,30.21,NNW,339,2.0,4.0,97,0.00,,,0.00,,weatherlink.com 1.10,2013-05-19 12:36:00,
2013-05-19 05:51:00,48.2,47.0,30.20,NW,321,0.0,4.0,96,0.00,,,0.00,,weatherlink.com 1.10,2013-05-19 12:51:00,
2013-05-19 06:06:00,47.4,46.0,30.21,NW,321,0.0,1.0,96,0.00,,,0.00,,weatherlink.com 1.10,2013-05-19 13:06:00,
2013-05-19 06:21:00,47.3,46.0,30.21,ENE,63,0.0,3.0,96,0.00,,,0.00,,weatherlink.com 1.10,2013-05-19 13:21:00,
2013-05-19 06:36:00,47.6,47.0,30.21,North,355,4.0,4.0,96,0.00,,,0.00,,weatherlink.com 1.10,2013-05-19 13:36:00,
2013-05-19 06:51:00,48.2,47.0,30.20,NNW,336,3.0,4.0,95,0.00,,,0.00,,weatherlink.com 1.10,2013-05-19 13:51:00,
2013-05-19 07:06:00,49.1,47.0,30.20,NNW,329,3.0,4.0,92,0.00,,,0.00,,weatherlink.com 1.10,2013-05-19 14:06:00,
2013-05-19 07:22:00,50.1,47.0,30.20,NNW,331,3.0,5.0,89,0.00,,,0.00,,weatherlink.com 1.10,2013-05-19 14:22:00,
2013-05-19 07:37:00,51.1,47.0,30.20,NW,315,3.0,4.0,87,0.00,,,0.00,,weatherlink.com 1.10,2013-05-19 14:37:00,
2013-05-19 07:52:00,52.6,48.0,30.20,NW,315,5.0,5.0,85,0.00,,,0.00,,weatherlink.com 1.10,2013-05-19 14:52:00,
2013-05-19 08:07:00,54.7,49.0,30.20,NW,315,1.0,4.0,81,0.00,,,0.00,,weatherlink.com 1.10,2013-05-19 15:07:00,
2013-05-19 08:22:00,56.0,50.0,30.20,NW,325,2.0,7.0,79,0.00,,,0.00,,weatherlink.com 1.10,2013-05-19 15:22:00,
2013-05-19 08:37:00,57.0,50.0,30.20,NNW,347,3.0,8.0,77,0.00,,,0.00,,weatherlink.com 1.10,2013-05-19 15:37:00,
2013-05-19 08:52:00,57.8,50.0,30.20,NNW,327,5.0,10.0,75,0.00,,,0.00,,weatherlink.com 1.10,2013-05-19 15:52:00,
2013-05-19 09:07:00,58.9,51.0,30.20,WNW,302,2.0,9.0,74,0.00,,,0.00,,weatherlink.com 1.10,2013-05-19 16:07:00,
2013-05-19 09:22:00,60.1,52.0,30.20,NW,311,3.0,6.0,74,0.00,,,0.00,,weatherlink.com 1.10,2013-05-19 16:22:00,
2013-05-19 09:37:00,60.4,52.0,30.20,NW,325,2.0,8.0,74,0.00,,,0.00,,weatherlink.com 1.10,2013-05-19 16:37:00,
2013-05-19 09:52:00,61.0,53.0,30.20,NNW,339,1.0,9.0,74,0.00,,,0.00,,weatherlink.com 1.10,2013-05-19 16:52:00,
2013-05-19 10:07:00,60.5,52.0,30.20,NNW,331,2.0,10.0,74,0.00,,,0.00,,weatherlink.com 1.10,2013-05-19 17:07:00,
2013-05-19 10:22:00,60.4,52.0,30.19,NNW,332,4.0,13.0,74,0.00,,,0.00,,weatherlink.com 1.10,2013-05-19 17:22:00,
2013-05-19 10:37:00,61.2,52.0,30.19,NW,309,4.0,9.0,73,0.00,,,0.00,,weatherlink.com 1.10,2013-05-19 17:37:00,
2013-05-19 10:52:00,61.8,53.0,30.19,NW,321,2.0,11.0,73,0.00,,,0.00,,weatherlink.com 1.10,2013-05-19 17:52:00,
2013-05-19 11:07:00,62.4,53.0,30.19,NW,310,5.0,11.0,71,0.00,,,0.00,,weatherlink.com 1.10,2013-05-19 18:07:00,
2013-05-19 11:22:00,63.7,53.0,30.18,WNW,289,2.0,10.0,69,0.00,,,0.00,,weatherlink.com 1.10,2013-05-19 18:22:00,
2013-05-19 11:37:00,63.5,53.0,30.18,NW,309,2.0,10.0,69,0.00,,,0.00,,weatherlink.com 1.10,2013-05-19 18:37:00,
2013-05-19 11:52:00,64.7,53.0,30.17,NNW,336,5.0,10.0,66,0.00,,,0.00,,weatherlink.com 1.10,2013-05-19 18:52:00,
2013-05-19 12:07:00,63.5,53.0,30.17,NW,321,4.0,12.0,69,0.00,,,0.00,,weatherlink.com 1.10,2013-05-19 19:07:00,
2013-05-19 12:22:00,63.9,53.0,30.17,NW,311,7.0,14.0,68,0.00,,,0.00,,weatherlink.com 1.10,2013-05-19 19:22:00,
2013-05-19 12:37:00,61.8,52.0,30.16,NW,318,6.0,15.0,71,0.00,,,0.00,,weatherlink.com 1.10,2013-05-19 19:37:00,
2013-05-19 12:52:00,63.4,53.0,30.16,West,277,7.0,15.0,69,0.00,,,0.00,,weatherlink.com 1.10,2013-05-19 19:52:00,
2013-05-19 13:07:00,64.3,54.0,30.16,NW,314,9.0,12.0,69,0.00,,,0.00,,weatherlink.com 1.10,2013-05-19 20:07:00,
2013-05-19 13:22:00,62.7,53.0,30.15,NW,321,16.0,19.0,71,0.00,,,0.00,,weatherlink.com 1.10,2013-05-19 20:22:00,
2013-05-19 13:37:00,61.6,52.0,30.15,NW,324,10.0,18.0,72,0.00,,,0.00,,weatherlink.com 1.10,2013-05-19 20:37:00,
2013-05-19 13:52:00,62.4,53.0,30.15,NW,317,5.0,15.0,71,0.00,,,0.00,,weatherlink.com 1.10,2013-05-19 20:52:00,
2013-05-19 14:07:00,63.7,53.0,30.14,NW,318,5.0,17.0,68,0.00,,,0.00,,weatherlink.com 1.10,2013-05-19 21:07:00,
2013-05-19 14:23:00,65.2,53.0,30.13,NNW,329,9.0,16.0,65,0.00,,,0.00,,weatherlink.com 1.10,2013-05-19 21:23:00,
2013-05-19 14:38:00,65.8,52.0,30.13,NW,310,5.0,15.0,62,0.00,,,0.00,,weatherlink.com 1.10,2013-05-19 21:38:00,
2013-05-19 14:53:00,66.6,52.0,30.12,NNW,340,11.0,13.0,60,0.00,,,0.00,,weatherlink.com 1.10,2013-05-19 21:53:00,
2013-05-19 15:08:00,66.3,52.0,30.12,NNW,332,6.0,13.0,60,0.00,,,0.00,,weatherlink.com 1.10,2013-05-19 22:08:00,
2013-05-19 15:23:00,65.6,52.0,30.12,NNW,344,9.0,21.0,62,0.00,,,0.00,,weatherlink.com 1.10,2013-05-19 22:23:00,
2013-05-19 15:38:00,64.8,52.0,30.11,NW,325,6.0,17.0,64,0.00,,,0.00,,weatherlink.com 1.10,2013-05-19 22:38:00,
2013-05-19 15:53:00,63.9,52.0,30.10,NW,317,11.0,15.0,66,0.00,,,0.00,,weatherlink.com 1.10,2013-05-19 22:53:00,
2013-05-19 16:08:00,64.2,53.0,30.10,NNW,327,9.0,13.0,66,0.00,,,0.00,,weatherlink.com 1.10,2013-05-19 23:08:00,
2013-05-19 16:23:00,63.4,53.0,30.10,NW,304,9.0,15.0,68,0.00,,,0.00,,weatherlink.com 1.10,2013-05-19 23:23:00,
2013-05-19 16:38:00,62.9,52.0,30.09,NW,323,9.0,14.0,68,0.00,,,0.00,,weatherlink.com 1.10,2013-05-19 23:38:00,
2013-05-19 16:53:00,62.1,52.0,30.08,NNW,338,7.0,17.0,69,0.00,,,0.00,,weatherlink.com 1.10,2013-05-19 23:53:00,
2013-05-19 17:08:00,62.6,52.0,30.08,WNW,283,10.0,15.0,68,0.00,,,0.00,,weatherlink.com 1.10,2013-05-20 00:08:00,
2013-05-19 17:23:00,62.4,52.0,30.08,NW,321,8.0,15.0,70,0.00,,,0.00,,weatherlink.com 1.10,2013-05-20 00:23:00,
2013-05-19 17:38:00,61.3,52.0,30.07,NNW,331,7.0,18.0,71,0.00,,,0.00,,weatherlink.com 1.10,2013-05-20 00:38:00,
2013-05-19 17:53:00,62.0,52.0,30.07,WNW,299,7.0,12.0,70,0.00,,,0.00,,weatherlink.com 1.10,2013-05-20 00:53:00,
2013-05-19 18:08:00,60.4,51.0,30.07,WNW,300,6.0,16.0,72,0.00,,,0.00,,weatherlink.com 1.10,2013-05-20 01:08:00,
2013-05-19 18:23:00,59.9,51.0,30.07,NNW,343,11.0,12.0,73,0.00,,,0.00,,weatherlink.com 1.10,2013-05-20 01:23:00,
2013-05-19 18:38:00,58.4,51.0,30.07,NNW,327,13.0,18.0,76,0.00,,,0.00,,weatherlink.com 1.10,2013-05-20 01:38:00,
2013-05-19 18:53:00,58.9,51.0,30.07,NW,314,3.0,11.0,75,0.00,,,0.00,,weatherlink.com 1.10,2013-05-20 01:53:00,
2013-05-19 19:08:00,58.1,51.0,30.07,WNW,294,5.0,12.0,77,0.00,,,0.00,,weatherlink.com 1.10,2013-05-20 02:08:00,
2013-05-19 19:23:00,57.8,51.0,30.07,NW,326,5.0,12.0,77,0.00,,,0.00,,weatherlink.com 1.10,2013-05-20 02:23:00,
2013-05-19 19:38:00,58.3,51.0,30.07,WNW,303,1.0,6.0,78,0.00,,,0.00,,weatherlink.com 1.10,2013-05-20 02:38:00,
2013-05-19 19:53:00,58.0,51.0,30.07,NW,311,1.0,5.0,78,0.00,,,0.00,,weatherlink.com 1.10,2013-05-20 02:53:00,
2013-05-19 20:08:00,57.2,51.0,30.07,NW,314,0.0,5.0,79,0.00,,,0.00,,weatherlink.com 1.10,2013-05-20 03:08:00,
2013-05-19 20:23:00,56.3,50.0,30.07,NNW,330,0.0,4.0,80,0.00,,,0.00,,weatherlink.com 1.10,2013-05-20 03:23:00,
2013-05-19 20:38:00,55.1,50.0,30.07,NNW,345,0.0,4.0,82,0.00,,,0.00,,weatherlink.com 1.10,2013-05-20 03:38:00,
2013-05-19 20:53:00,54.1,49.0,30.07,NNW,345,1.0,3.0,84,0.00,,,0.00,,weatherlink.com 1.10,2013-05-20 03:53:00,
2013-05-19 21:08:00,53.1,49.0,30.07,NNW,332,3.0,6.0,87,0.00,,,0.00,,weatherlink.com 1.10,2013-05-20 04:08:00,
2013-05-19 21:23:00,53.5,50.0,30.07,NNW,337,0.0,8.0,87,0.00,,,0.00,,weatherlink.com 1.10,2013-05-20 04:23:00,
2013-05-19 21:38:00,53.2,50.0,30.08,NNW,337,0.0,0.0,89,0.00,,,0.00,,weatherlink.com 1.10,2013-05-20 04:38:00,
2013-05-19 21:53:00,53.2,50.0,30.08,NNW,337,0.0,1.0,89,0.00,,,0.00,,weatherlink.com 1.10,2013-05-20 04:53:00,
2013-05-19 22:08:00,52.6,50.0,30.09,NNW,336,3.0,3.0,90,0.00,,,0.00,,weatherlink.com 1.10,2013-05-20 05:08:00,
2013-05-19 22:23:00,53.3,51.0,30.08,NNW,336,0.0,1.0,92,0.00,,,0.00,,weatherlink.com 1.10,2013-05-20 05:23:00,
2013-05-19 22:38:00,54.5,51.0,30.08,NNW,336,0.0,1.0,89,0.00,,,0.00,,weatherlink.com 1.10,2013-05-20 05:38:00,
2013-05-19 22:53:00,55.3,52.0,30.08,NNW,336,0.0,3.0,88,0.00,,,0.00,,weatherlink.com 1.10,2013-05-20 05:53:00,
2013-05-19 23:08:00,55.4,51.0,30.08,NNW,336,0.0,1.0,86,0.00,,,0.00,,weatherlink.com 1.10,2013-05-20 06:08:00,
2013-05-19 23:23:00,55.9,51.0,30.07,NNW,336,0.0,1.0,84,0.00,,,0.00,,weatherlink.com 1.10,2013-05-20 06:23:00,
2013-05-19 23:38:00,56.5,51.0,30.07,North,10,0.0,5.0,81,0.00,,,0.00,,weatherlink.com 1.10,2013-05-20 06:38:00,
2013-05-19 23:53:00,56.0,51.0,30.07,North,10,0.0,1.0,82,0.00,,,0.00,,weatherlink.com 1.10,2013-05-20 06:53:00,